Regional Weather Roundup
Issued by NWS

Home | Current Version | Previous Version | Graphics & Text | Print | Product List | Glossary On
Versions: 1 2 3 4 5 6 7 8 9 10 11 12 13 14 15 16 17 18 19 20 21 22 23 24 25 26 27 28 29 30 31 32 33 34 35 36 37 38 39 40 41 42 43 44 45 46 47 48 49 50
000
ASUS43 KBIS 190410
RWRND

NORTH DAKOTA REGIONAL WEATHER ROUNDUP
NATIONAL WEATHER SERVICE BISMARCK ND
1100 PM CDT THU SEP 18 2014

NOTE: "FAIR" INDICATES FEW OR NO CLOUDS BELOW 12,000 FEET WITH NO
SIGNIFICANT WEATHER AND/OR OBSTRUCTIONS TO VISIBILITY.


NDZ001>003-009>011-017-190500-
NORTHWEST NORTH DAKOTA

CITY           SKY/WX    TMP DP  RH WIND       PRES   REMARKS
WILLISTON      CLOUDY    66  54  65 S5        29.60R
MINOT          CLOUDY    72  59  63 S8        29.58R
MINOT AFB      CLOUDY    72  61  68 SW8       29.56R
$$

NDZ018>021-031>035-040>046-190500-
SOUTHWEST NORTH DAKOTA

CITY           SKY/WX    TMP DP  RH WIND       PRES   REMARKS
BISMARCK       CLOUDY    68  62  81 E9        29.66F
DICKINSON      CLOUDY    68  60  75 SW10      29.68R
GARRISON         N/A     70  65  84 SW7       29.63F
HETTINGER ARPT CLOUDY    68  62  81 SE3       29.72R
$$

NDZ004>008-012>016-024-026-027-054-190500-
NORTHEAST NORTH DAKOTA

CITY           SKY/WX    TMP DP  RH WIND       PRES   REMARKS
GRAND FORKS    CLOUDY    69  58  67 S22G28    29.69S
GRND FRKS AFB  CLOUDY    69  62  79 S15G23    29.68F
DEVILS LAKE    CLOUDY    72  57  60 S17       29.62F
$$

NDZ022-023-025-028>030-036>039-047>053-190500-
SOUTHEAST NORTH DAKOTA

CITY           SKY/WX    TMP DP  RH WIND       PRES   REMARKS
FARGO          CLOUDY    68  56  65 S17G23    29.76F
JAMESTOWN      CLOUDY    68  59  73 S15       29.71F
$$



USA.gov is the U.S. government's official web portal to all federal, state and local government web resources and services.